Wind_Speed
31 30 31 31 31 30 30 30 30 31 31 33 36 38 39 38 38 38 39 39 39 40 40 40 39 40 39 38 37 34 32 31 29 28 27 26 26 25
29 29 30 31 31 31 31 31 31 32 32 32 34 36 37 38 38 39 39 40 39 40 41 40 40 39 39 39 38 35 33 31 29 28 28 28 27 27
29 30 31 32 32 32 33 33 33 33 33 32 32 32 33 34 36 38 40 40 40 39 38 40 40 39 39 40 39 36 33 31 30 29 29 29 28 28
30 31 32 32 33 34 34 35 35 34 34 33 32 31 31 31 31 33 35 36 37 37 37 38 38 38 38 39 38 36 33 32 31 30 30 30 30 30
30 31 32 33 34 34 35 36 36 35 35 34 33 32 30 29 29 30 32 32 33 33 34 34 35 35 34 36 36 34 33 32 32 31 31 31 31 31
30 31 32 33 34 35 35 36 36 36 36 35 34 33 31 29 28 27 28 28 28 29 31 31 32 31 30 31 32 31 31 31 31 32 32 33 33 33
29 30 31 33 33 34 35 35 36 36 36 35 35 34 32 30 29 27 27 25 24 25 27 27 27 28 28 28 29 30 30 31 31 32 33 33 33 33
28 29 30 31 32 33 34 34 34 35 35 35 35 34 33 32 31 29 28 26 25 24 24 24 24 24 26 28 29 30 32 33 34 34 33 33 33 34
25 26 28 29 30 30 31 32 32 33 33 33 33 33 33 32 31 31 30 29 27 25 24 21 21 23 24 25 28 31 33 34 36 36 34 35 35 34
23 24 25 25 26 27 28 28 29 30 31 31 32 32 32 32 31 30 30 30 30 29 27 25 23 22 23 25 27 30 33 34 35 35 35 35 34 34
20 20 21 22 23 24 25 26 27 28 29 30 31 31 31 32 31 31 31 30 30 31 30 28 27 25 24 25 25 26 29 32 34 34 34 34 34 35
16 17 18 20 21 23 24 26 27 28 29 30 30 31 32 32 31 31 31 31 31 30 30 30 29 28 27 26 25 25 27 30 31 33 33 33 33 33
15 17 18 20 22 23 25 27 29 30 31 32 32 32 33 33 33 32 32 31 31 32 31 30 30 30 30 29 28 28 28 29 31 31 32 33 33 32
16 17 18 20 22 23 25 26 27 28 28 29 30 31 32 32 33 33 33 32 32 33 33 33 34 33 32 31 31 31 31 31 30 31 32 33 35 35
16 17 18 20 21 23 23 24 25 25 26 26 26 27 28 29 30 32 33 33 33 34 34 35 36 36 36 35 34 32 32 32 32 32 33 34 34 36
16 17 18 20 21 23 24 24 24 24 24 25 25 25 26 26 26 27 29 31 33 34 34 35 35 36 37 37 36 36 34 34 34 35 36 36 36 37
16 17 18 20 21 23 24 24 24 24 24 24 24 23 23 24 24 24 26 28 29 31 33 34 34 34 35 36 37 36 36 36 37 37 38 38 38 38
15 16 18 20 21 23 24 24 25 25 25 24 23 23 23 23 23 24 24 25 26 28 30 32 33 33 33 33 34 35 36 36 38 38 40 41 42 41
15 16 18 20 21 23 24 24 25 25 26 26 25 24 23 23 23 23 24 25 26 27 28 29 30 32 33 33 33 34 34 36 36 37 39 40 41 42
15 16 17 19 21 23 24 25 25 26 26 26 26 25 24 24 23 23 23 24 25 26 26 27 29 30 32 33 34 35 35 35 36 36 36 37 39 40
15 16 17 19 21 23 24 25 25 27 27 28 27 26 25 25 24 24 24 24 25 25 26 27 27 29 30 32 33 34 34 35 36 35 35 36 38 39
16 16 17 18 20 22 23 24 26 27 29 29 28 28 27 26 26 25 25 25 26 26 27 27 27 28 29 31 32 33 34 34 34 36 36 36 37 38
16 16 17 18 20 22 23 24 27 29 30 31 31 30 30 29 28 27 26 26 26 26 27 27 27 27 28 29 31 32 33 35 35 36 36 37 38 38
Wind_Direction
275 276 278 279 280 281 283 284 284 284 282 279 276 274 272 270 267 264 262 262 262 261 262 262 262 260 258 255 253 251 250 250 250 248 246 246 245 244
273 275 277 278 279 280 282 283 284 283 283 282 278 276 274 270 268 265 264 262 262 261 261 261 260 259 258 255 252 250 249 247 245 244 244 244 243 243
274 275 276 277 278 279 280 280 282 282 283 284 284 281 278 275 271 268 264 264 262 261 261 261 260 260 257 254 251 248 245 244 241 240 240 241 240 241
274 275 276 277 277 278 279 279 279 281 282 282 283 283 281 279 274 271 267 265 262 261 261 261 260 260 258 254 250 245 241 240 238 236 236 236 237 238
274 275 276 277 277 277 277 277 278 279 280 281 281 282 281 281 279 274 271 268 263 261 259 259 258 258 256 252 248 242 238 235 234 234 233 233 234 236
276 277 277 277 277 277 277 277 277 278 278 279 279 279 279 280 280 277 272 266 263 260 255 254 254 252 252 250 243 238 234 230 230 230 231 230 232 234
277 278 278 278 278 278 278 277 277 278 278 278 278 278 278 278 277 275 272 267 262 257 253 251 248 247 246 244 238 234 230 227 225 226 228 228 230 231
279 279 280 280 280 280 280 279 279 279 279 279 278 277 277 276 276 275 273 270 266 259 255 250 247 244 243 241 236 231 225 222 223 225 226 228 230 231
281 282 284 284 284 284 283 282 282 281 280 280 280 278 277 275 274 273 272 271 270 265 261 256 250 245 243 240 236 232 227 226 227 227 228 228 228 230
284 286 288 289 289 288 288 289 288 287 286 284 282 281 279 277 275 273 272 270 269 268 266 260 257 253 247 244 240 235 230 227 227 228 228 229 227 227
286 289 290 292 293 293 293 292 291 290 288 287 285 283 281 279 276 272 269 268 266 265 264 263 260 257 252 249 246 239 233 231 229 228 228 228 227 225
289 291 294 296 297 297 296 295 294 292 289 286 284 281 279 278 276 274 271 267 265 263 260 260 260 257 256 252 246 242 237 233 231 229 229 228 227 227
292 295 297 299 300 300 299 299 297 295 293 290 287 284 281 278 275 272 270 269 266 263 260 256 255 255 253 252 250 245 240 235 231 229 229 228 229 228
295 298 301 304 305 306 306 306 304 302 299 296 292 289 285 282 278 274 271 268 266 264 262 258 255 254 253 251 250 249 246 241 237 235 233 234 232 231
297 303 307 310 313 314 315 314 312 309 306 302 298 294 290 286 283 278 275 272 268 265 263 261 259 257 256 254 252 251 248 244 241 239 237 236 236 236
299 306 312 317 320 321 321 320 318 315 312 308 304 300 295 291 288 283 279 275 273 269 266 263 261 259 257 255 254 254 252 249 244 242 240 239 238 238
300 308 315 321 323 324 324 324 323 321 318 315 310 305 301 296 292 288 284 281 277 275 272 267 263 261 258 256 255 254 253 252 249 247 246 245 243 242
300 310 317 322 324 326 326 326 325 324 323 321 316 311 306 301 296 292 289 285 282 279 276 272 268 264 261 259 256 253 253 253 252 250 250 250 249 246
300 310 317 322 325 327 328 328 328 327 326 324 320 315 310 306 300 295 292 288 285 282 279 276 272 266 262 259 257 255 252 250 251 251 251 250 250 250
298 307 313 319 323 325 327 327 328 328 328 326 323 320 315 310 305 299 295 292 287 284 282 278 274 269 265 261 258 256 256 253 251 250 249 248 248 247
294 303 310 315 319 323 325 326 327 329 329 329 327 324 320 315 309 304 299 295 291 287 285 282 277 272 268 264 261 257 256 254 252 249 247 245 244 245
289 297 305 312 318 322 325 326 327 329 330 330 328 326 323 319 313 307 302 298 294 291 288 285 280 276 270 266 263 259 256 253 252 249 247 245 243 242
283 292 300 309 317 322 324 327 330 331 331 331 329 327 324 321 317 311 304 300 296 293 290 286 282 278 273 268 264 260 257 253 250 249 247 244 243 241
Height
5789 5788 5787 5786 5785 5784 5783 5781 5781 5779 5777 5774 5772 5770 5769 5768 5768 5768 5768 5768 5769 5770 5771 5772 5773 5774 5775 5777 5779 5781 5783 5785 5788 5790 5792 5794 5797 5799
5780 5779 5778 5778 5777 5776 5775 5773 5772 5771 5769 5766 5764 5762 5760 5759 5758 5758 5757 5758 5758 5759 5760 5761 5762 5764 5765 5767 5769 5771 5774 5776 5779 5782 5784 5787 5789 5792
5771 5771 5770 5769 5768 5767 5766 5765 5764 5762 5760 5758 5756 5753 5751 5750 5749 5748 5747 5748 5748 5749 5750 5751 5752 5753 5754 5756 5759 5761 5764 5767 5771 5773 5776 5779 5782 5784
5763 5762 5761 5761 5760 5759 5758 5757 5755 5753 5752 5750 5747 5745 5743 5740 5739 5738 5737 5737 5738 5738 5739 5740 5741 5743 5744 5746 5748 5751 5755 5758 5762 5765 5768 5771 5774 5777
5754 5753 5753 5752 5751 5750 5749 5748 5746 5745 5743 5741 5739 5737 5735 5733 5731 5730 5729 5728 5728 5729 5729 5730 5731 5733 5735 5737 5739 5742 5745 5749 5753 5756 5760 5763 5766 5769
5745 5745 5744 5743 5743 5741 5740 5739 5737 5736 5734 5733 5731 5730 5728 5726 5725 5723 5722 5720 5720 5720 5720 5721 5722 5724 5726 5728 5731 5734 5737 5740 5743 5747 5751 5755 5758 5761
5737 5736 5736 5735 5733 5732 5731 5730 5729 5727 5726 5724 5723 5722 5721 5719 5718 5717 5716 5714 5713 5712 5713 5713 5714 5716 5718 5720 5723 5726 5729 5732 5734 5738 5742 5746 5749 5753
5729 5728 5727 5726 5725 5724 5723 5721 5720 5718 5717 5715 5714 5713 5712 5711 5711 5710 5709 5707 5706 5706 5705 5706 5707 5708 5710 5712 5715 5718 5721 5724 5727 5730 5734 5737 5741 5744
5722 5721 5720 5719 5717 5716 5714 5712 5711 5709 5708 5707 5705 5704 5703 5703 5702 5702 5701 5700 5699 5699 5699 5699 5700 5701 5703 5705 5707 5710 5714 5716 5719 5722 5726 5729 5733 5736
5716 5715 5713 5712 5710 5709 5707 5705 5703 5701 5699 5698 5697 5695 5694 5694 5694 5693 5693 5693 5692 5692 5692 5693 5693 5694 5696 5698 5700 5702 5706 5708 5711 5714 5718 5721 5725 5729
5710 5709 5708 5707 5705 5703 5701 5698 5696 5694 5692 5690 5688 5687 5686 5685 5684 5684 5684 5685 5685 5685 5685 5686 5686 5687 5689 5691 5692 5695 5698 5701 5703 5706 5710 5713 5717 5721
5706 5705 5703 5701 5699 5697 5695 5692 5690 5687 5685 5682 5680 5679 5677 5676 5676 5675 5675 5676 5676 5677 5677 5679 5679 5680 5682 5683 5685 5687 5690 5693 5695 5698 5702 5705 5709 5713
5701 5700 5698 5696 5694 5692 5689 5686 5683 5679 5676 5674 5671 5669 5668 5667 5667 5666 5666 5666 5667 5668 5669 5671 5672 5673 5674 5676 5678 5680 5683 5685 5688 5691 5694 5697 5701 5705
5697 5696 5694 5692 5689 5686 5683 5679 5676 5672 5668 5665 5662 5660 5658 5657 5656 5656 5656 5657 5658 5658 5659 5661 5663 5664 5666 5668 5670 5672 5675 5677 5680 5683 5686 5689 5692 5695
5693 5691 5689 5687 5684 5680 5677 5673 5669 5666 5662 5658 5655 5652 5650 5648 5647 5646 5646 5647 5647 5648 5650 5651 5653 5655 5657 5659 5661 5663 5666 5668 5671 5674 5677 5679 5683 5686
5688 5686 5684 5681 5678 5674 5671 5667 5663 5660 5656 5652 5648 5645 5643 5641 5639 5637 5637 5637 5637 5638 5639 5640 5642 5644 5646 5648 5650 5653 5656 5658 5661 5664 5666 5669 5672 5675
5684 5682 5679 5676 5673 5669 5665 5662 5658 5654 5650 5646 5642 5639 5636 5634 5632 5630 5629 5628 5627 5627 5628 5629 5631 5633 5635 5637 5640 5642 5644 5647 5649 5652 5656 5659 5661 5664
5679 5677 5674 5671 5668 5664 5660 5657 5653 5649 5645 5641 5637 5633 5630 5627 5625 5623 5622 5620 5619 5618 5618 5618 5620 5622 5624 5626 5628 5631 5633 5635 5638 5640 5643 5647 5650 5653
5674 5672 5669 5666 5663 5659 5656 5652 5648 5644 5640 5635 5631 5627 5624 5621 5618 5616 5614 5613 5611 5610 5609 5609 5609 5610 5612 5614 5616 5618 5621 5623 5626 5628 5631 5634 5638 5641
5669 5667 5665 5662 5659 5655 5651 5647 5643 5639 5635 5630 5626 5622 5618 5615 5612 5609 5607 5605 5603 5602 5601 5600 5599 5599 5600 5602 5604 5606 5608 5611 5614 5616 5619 5622 5625 5628
5664 5662 5660 5657 5654 5651 5647 5643 5639 5634 5630 5625 5620 5616 5612 5609 5605 5602 5600 5598 5596 5594 5592 5591 5590 5589 5589 5590 5592 5593 5595 5597 5600 5603 5607 5610 5613 5616
5658 5657 5655 5652 5649 5646 5642 5638 5634 5629 5625 5620 5615 5611 5606 5602 5599 5595 5593 5590 5588 5585 5583 5582 5581 5580 5579 5579 5580 5581 5583 5585 5587 5590 5593 5597 5599 5603
5652 5651 5649 5647 5644 5641 5637 5633 5628 5624 5619 5614 5609 5605 5600 5596 5592 5588 5585 5582 5579 5577 5575 5573 5571 5570 5569 5569 5569 5570 5571 5573 5575 5578 5581 5583 5587 5590